,,,PA_Meas_PMT16A,,PR_Meas_QMR101_102,,RH_Meas_QMH101,,SR_Meas_QMS101,,TA_Meas_QMH101,,GenWind,,GenWind,
date,time,status,PA,status,PR,status,RH,status,SR,status,TA,status,DirAvg,status,SpdAvg,
2011-01-21, 00:00:05,VALID,1003.21,VALID,0,INVALID,163.716,VALID,0,VALID,24.1884,VALID,353,VALID,0.633203,
2011-01-21, 00:01:05,VALID,1003.2,VALID,0,INVALID,163.701,VALID,0,VALID,24.1884,VALID,353,VALID,0.303906,
2011-01-21, 00:02:05,VALID,1003.15,VALID,0,INVALID,163.731,VALID,0,VALID,24.1689,VALID,353,VALID,0.340625,
2011-01-21, 00:03:05,VALID,1003.15,VALID,0,INVALID,163.716,VALID,0.100563,VALID,24.1884,VALID,332,VALID,0.394922,
2011-01-21, 00:04:05,VALID,1003.1,VALID,0,INVALID,163.708,VALID,0,VALID,24.1884,VALID,341,VALID,0.423047,
2011-01-21, 00:05:05,VALID,1003.06,VALID,0,INVALID,163.701,VALID,0,VALID,24.1884,VALID,341,VALID,0.357422,
2011-01-21, 00:06:05,VALID,1003.04,VALID,0,INVALID,163.685,VALID,0,VALID,24.1689,VALID,341,VALID,0.509766,
2011-01-21, 00:07:05,VALID,1003.03,VALID,0,INVALID,163.701,VALID,0.100563,VALID,24.1671,VALID,341,VALID,0.405078,
2011-01-21, 00:08:05,VALID,1003.02,VALID,0,INVALID,163.678,VALID,0,VALID,24.2078,VALID,342,VALID,0.477344,
2011-01-21, 00:09:05,VALID,1003.01,VALID,0,INVALID,163.716,VALID,0,VALID,24.1884,VALID,342,VALID,0.334766,
2011-01-21, 00:10:05,VALID,1002.97,VALID,0,INVALID,163.678,VALID,0,VALID,24.1689,VALID,353,VALID,0.517969,
2011-01-21, 00:11:05,VALID,1002.97,VALID,0,INVALID,163.708,VALID,0,VALID,24.1689,VALID,347,VALID,0.650781,
2011-01-21, 00:12:05,VALID,1002.94,VALID,0,INVALID,163.701,VALID,0,VALID,24.2097,VALID,347,VALID,0.450781,
2011-01-21, 00:13:05,VALID,1002.94,VALID,0,INVALID,163.693,VALID,0,VALID,24.2078,VALID,347,VALID,0.573438,
2011-01-21, 00:14:05,VALID,1002.91,VALID,0,INVALID,163.693,VALID,0,VALID,24.2078,VALID,347,VALID,0.485156,
2011-01-21, 00:15:05,VALID,1002.89,VALID,0,INVALID,163.731,VALID,0,VALID,24.1884,VALID,346,VALID,0.421094,
2011-01-21, 00:16:05,VALID,1002.87,VALID,0,INVALID,163.716,VALID,0,VALID,24.2078,VALID,344,VALID,0.563672,
2011-01-21, 00:17:05,VALID,1002.86,VALID,0,INVALID,163.678,VALID,0,VALID,24.2468,VALID,345,VALID,0.323438,
2011-01-21, 00:18:05,VALID,1002.86,VALID,0,INVALID,163.67,VALID,0,VALID,24.3052,VALID,344,VALID,0.459375,
2011-01-21, 00:19:05,VALID,1002.83,VALID,0,INVALID,163.701,VALID,0,VALID,24.2857,VALID,344,VALID,0.5125,
2011-01-21, 00:20:05,VALID,1002.79,VALID,0,INVALID,163.67,VALID,0,VALID,24.3052,VALID,333,VALID,0.514453,
2011-01-21, 00:21:05,VALID,1002.81,VALID,0,INVALID,163.685,VALID,0,VALID,24.2839,VALID,338,VALID,0.525391,
2011-01-21, 00:22:05,VALID,1002.79,VALID,0,INVALID,163.708,VALID,0,VALID,24.2857,VALID,338,VALID,0.341797,
2011-01-21, 00:23:05,VALID,1002.82,VALID,0,INVALID,163.701,VALID,0,VALID,24.2468,VALID,338,VALID,0.457031,
2011-01-21, 00:24:05,VALID,1002.76,VALID,0,INVALID,163.701,VALID,0.100563,VALID,24.2468,VALID,341,VALID,0.345703,
2011-01-21, 00:25:05,VALID,1002.76,VALID,0,INVALID,163.685,VALID,0,VALID,24.2486,VALID,341,VALID,0.219922,
2011-01-21, 00:26:05,VALID,1002.73,VALID,0,INVALID,163.693,VALID,0,VALID,24.2291,VALID,341,VALID,0.2125,
2011-01-21, 00:27:05,VALID,1002.72,VALID,0,INVALID,163.701,VALID,0,VALID,24.2078,VALID,341,VALID,0.249609,
2011-01-21, 00:28:05,VALID,1002.72,VALID,0,INVALID,163.701,VALID,0,VALID,24.2291,VALID,341,VALID,0.220703,
2011-01-21, 00:29:05,VALID,1002.7,VALID,0,INVALID,163.739,VALID,0,VALID,24.2291,VALID,341,VALID,0.338672,
2011-01-21, 00:30:05,VALID,1002.71,VALID,0,INVALID,163.716,VALID,0,VALID,24.2291,VALID,341,VALID,0.458203,
2011-01-21, 00:31:05,VALID,1002.72,VALID,0,INVALID,163.685,VALID,0,VALID,24.1689,VALID,341,VALID,0.469141,
2011-01-21, 00:32:05,VALID,1002.74,VALID,0,INVALID,163.678,VALID,0,VALID,24.1689,VALID,343,VALID,0.686328,
2011-01-21, 00:33:05,VALID,1002.72,VALID,0,INVALID,163.701,VALID,0,VALID,24.1494,VALID,344,VALID,0.544141,
2011-01-21, 00:34:05,VALID,1002.75,VALID,0,INVALID,163.731,VALID,0,VALID,24.1494,VALID,344,VALID,0.513281,
2011-01-21, 00:35:05,VALID,1002.75,VALID,0,INVALID,163.685,VALID,0.100563,VALID,24.1087,VALID,344,VALID,0.549609,
2011-01-21, 00:36:05,VALID,1002.73,VALID,0,INVALID,163.708,VALID,0,VALID,24.13,VALID,344,VALID,0.524219,
2011-01-21, 00:37:05,VALID,1002.73,VALID,0,INVALID,163.723,VALID,0,VALID,24.0892,VALID,344,VALID,0.225781,
2011-01-21, 00:38:05,VALID,1002.73,VALID,0,INVALID,163.723,VALID,0,VALID,24.091,VALID,344,VALID,0.324609,
2011-01-21, 00:39:05,VALID,1002.69,VALID,0,INVALID,163.708,VALID,0,VALID,24.0697,VALID,344,VALID,0.0898438,
2011-01-21, 00:40:05,VALID,1002.65,VALID,0,INVALID,163.701,VALID,0,VALID,24.0716,VALID,344,VALID,0,
2011-01-21, 00:41:05,VALID,1002.64,VALID,0,INVALID,163.723,VALID,0,VALID,24.091,VALID,344,VALID,0,
2011-01-21, 00:42:05,VALID,1002.63,VALID,0,INVALID,163.723,VALID,0,VALID,24.1123,VALID,344,VALID,0,
2011-01-21, 00:43:05,VALID,1002.64,VALID,0,INVALID,163.693,VALID,0,VALID,24.1105,VALID,344,VALID,0,
2011-01-21, 00:44:05,VALID,1002.58,VALID,0,INVALID,163.723,VALID,0,VALID,24.1105,VALID,344,VALID,0,
2011-01-21, 00:45:05,VALID,1002.61,VALID,0,INVALID,163.67,VALID,0,VALID,24.1105,VALID,344,VALID,0,
2011-01-21, 00:46:05,VALID,1002.58,VALID,0,INVALID,163.708,VALID,0,VALID,24.1513,VALID,344,VALID,0,
2011-01-21, 00:47:05,VALID,1002.56,VALID,0,INVALID,163.708,VALID,0,VALID,24.1318,VALID,344,VALID,0,
2011-01-21, 00:48:05,VALID,1002.54,VALID,0,INVALID,163.701,VALID,0,VALID,24.0892,VALID,344,VALID,0,
2011-01-21, 00:49:05,VALID,1002.52,VALID,0,INVALID,163.708,VALID,0,VALID,24.1105,VALID,344,VALID,0,
2011-01-21, 00:50:05,VALID,1002.53,VALID,0,INVALID,163.716,VALID,0,VALID,24.1105,VALID,344,VALID,0,
2011-01-21, 00:51:05,VALID,1002.51,VALID,0,INVALID,163.716,VALID,0,VALID,24.0716,VALID,344,VALID,0,
2011-01-21, 00:52:05,VALID,1002.53,VALID,0,INVALID,163.701,VALID,0,VALID,24.0716,VALID,344,VALID,0,
2011-01-21, 00:53:05,VALID,1002.52,VALID,0,INVALID,163.701,VALID,0,VALID,24.0539,VALID,344,VALID,0,
2011-01-21, 00:54:05,VALID,1002.49,VALID,0,INVALID,163.723,VALID,0,VALID,23.9937,VALID,344,VALID,0,
2011-01-21, 00:55:05,VALID,1002.47,VALID,0,INVALID,163.708,VALID,0,VALID,23.9955,VALID,344,VALID,0,
2011-01-21, 00:56:05,VALID,1002.49,VALID,0,INVALID,163.739,VALID,0,VALID,23.9548,VALID,344,VALID,0.374219,
2011-01-21, 00:57:05,VALID,1002.46,VALID,0,INVALID,163.746,VALID,0,VALID,23.9335,VALID,344,VALID,0.5625,
2011-01-21, 00:58:05,VALID,1002.49,VALID,0,INVALID,163.731,VALID,0,VALID,23.8946,VALID,344,VALID,0.575781,
2011-01-21, 00:59:05,VALID,1002.48,VALID,0,INVALID,163.731,VALID,0,VALID,23.8751,VALID,344,VALID,0.601563,
2011-01-21, 01:00:05,VALID,1002.46,VALID,0,INVALID,163.731,VALID,0.100563,VALID,23.8964,VALID,344,VALID,0.508594,
2011-01-21, 01:01:05,VALID,1002.47,VALID,0,INVALID,163.723,VALID,0,VALID,23.8964,VALID,344,VALID,0.462109,
2011-01-21, 01:02:05,VALID,1002.47,VALID,0,INVALID,163.739,VALID,0,VALID,23.8751,VALID,344,VALID,0.519531,
2011-01-21, 01:03:05,VALID,1002.47,VALID,0,INVALID,163.739,VALID,0,VALID,23.8964,VALID,344,VALID,0.331641,
2011-01-21, 01:04:05,VALID,1002.44,VALID,0,INVALID,163.708,VALID,0,VALID,23.9159,VALID,344,VALID,0.346875,
2011-01-21, 01:05:05,VALID,1002.43,VALID,0,INVALID,163.708,VALID,0,VALID,23.9159,VALID,344,VALID,0.377344,
2011-01-21, 01:06:05,VALID,1002.42,VALID,0,INVALID,163.716,VALID,0,VALID,23.8964,VALID,344,VALID,0.311719,
2011-01-21, 01:07:05,VALID,1002.42,VALID,0,INVALID,163.701,VALID,0,VALID,23.8769,VALID,344,VALID,0.433203,
2011-01-21, 01:08:05,VALID,1002.39,VALID,0,INVALID,163.739,VALID,0.100563,VALID,23.8769,VALID,344,VALID,0.478516,
2011-01-21, 01:09:05,VALID,1002.4,VALID,0,INVALID,163.739,VALID,0,VALID,23.8964,VALID,344,VALID,0.496875,
2011-01-21, 01:10:05,VALID,1002.36,VALID,0,INVALID,163.731,VALID,0,VALID,23.8769,VALID,344,VALID,0.508594,
2011-01-21, 01:11:05,VALID,1002.36,VALID,0,INVALID,163.731,VALID,0.100563,VALID,23.8362,VALID,344,VALID,0.367578,
2011-01-21, 01:12:05,VALID,1002.33,VALID,0,INVALID,163.723,VALID,0,VALID,23.8167,VALID,344,VALID,0.232812,
2011-01-21, 01:13:05,VALID,1002.31,VALID,0,INVALID,163.762,VALID,0,VALID,23.8167,VALID,344,VALID,0.393359,
2011-01-21, 01:14:05,VALID,1002.3,VALID,0,INVALID,163.731,VALID,0.100563,VALID,23.8362,VALID,344,VALID,0.353516,
2011-01-21, 01:15:05,VALID,1002.28,VALID,0,INVALID,163.739,VALID,0,VALID,23.8167,VALID,344,VALID,0.29375,
2011-01-21, 01:16:05,VALID,1002.27,VALID,0,INVALID,163.716,VALID,0,VALID,23.838,VALID,344,VALID,0.276953,
2011-01-21, 01:17:05,VALID,1002.27,VALID,0,INVALID,163.716,VALID,0,VALID,23.838,VALID,344,VALID,0.292188,
2011-01-21, 01:18:05,VALID,1002.25,VALID,0,INVALID,163.716,VALID,0.100563,VALID,23.8575,VALID,344,VALID,0.470703,
2011-01-21, 01:19:05,VALID,1002.23,VALID,0,INVALID,163.731,VALID,0,VALID,23.8964,VALID,344,VALID,0.365234,
2011-01-21, 01:20:04,VALID,1002.2,VALID,0,INVALID,163.739,VALID,0,VALID,23.9159,VALID,344,VALID,0.378906,
2011-01-21, 01:21:04,VALID,1002.18,VALID,0,INVALID,163.708,VALID,0,VALID,23.9742,VALID,343,VALID,0.484375,
2011-01-21, 01:22:04,VALID,1002.16,VALID,0,INVALID,163.723,VALID,0,VALID,23.9937,VALID,343,VALID,0.278516,
2011-01-21, 01:23:04,VALID,1002.15,VALID,0,INVALID,163.731,VALID,0,VALID,24.0521,VALID,343,VALID,0.370703,
2011-01-21, 01:24:04,VALID,1002.13,VALID,0,INVALID,163.716,VALID,0,VALID,24.091,VALID,343,VALID,0.378906,
2011-01-21, 01:25:04,VALID,1002.14,VALID,0,INVALID,163.678,VALID,0,VALID,24.0892,VALID,343,VALID,0.263672,
2011-01-21, 01:26:04,VALID,1002.1,VALID,0,INVALID,163.716,VALID,0,VALID,24.1105,VALID,343,VALID,0.223828,
2011-01-21, 01:27:04,VALID,1002.12,VALID,0,INVALID,163.693,VALID,0.100563,VALID,24.091,VALID,343,VALID,0.319531,
2011-01-21, 01:28:04,VALID,1002.1,VALID,0,INVALID,163.723,VALID,0.100563,VALID,24.0697,VALID,343,VALID,0.278516,
2011-01-21, 01:29:04,VALID,1002.08,VALID,0,INVALID,163.716,VALID,0,VALID,24.0716,VALID,343,VALID,0.327734,
2011-01-21, 01:30:04,VALID,1002.06,VALID,0,INVALID,163.754,VALID,0,VALID,24.0308,VALID,343,VALID,0.0390625,
2011-01-21, 01:31:04,VALID,1002.07,VALID,0,INVALID,163.716,VALID,0,VALID,24.0326,VALID,343,VALID,0,
2011-01-21, 01:32:04,VALID,1002.05,VALID,0,INVALID,163.731,VALID,0,VALID,24.0132,VALID,343,VALID,0,
2011-01-21, 01:33:04,VALID,1002.04,VALID,0,INVALID,163.701,VALID,0.100563,VALID,23.953,VALID,343,VALID,0,
2011-01-21, 01:34:04,VALID,1002.07,VALID,0,INVALID,163.708,VALID,0,VALID,23.9761,VALID,343,VALID,0,
2011-01-21, 01:35:04,VALID,1002.07,VALID,0,INVALID,163.693,VALID,0,VALID,23.9353,VALID,343,VALID,0,
2011-01-21, 01:36:04,VALID,1002.03,VALID,0,INVALID,163.716,VALID,0.100563,VALID,23.914,VALID,343,VALID,0,
2011-01-21, 01:37:04,VALID,1002.06,VALID,0,INVALID,163.716,VALID,0.100563,VALID,23.8946,VALID,343,VALID,0,
2011-01-21, 01:38:04,VALID,1002.04,VALID,0,INVALID,163.731,VALID,0,VALID,23.8751,VALID,343,VALID,0,
2011-01-21, 01:39:04,VALID,1002.02,VALID,0,INVALID,163.754,VALID,0,VALID,23.8982,VALID,343,VALID,0.192578,
2011-01-21, 01:40:04,VALID,1002.01,VALID,0,INVALID,163.693,VALID,0,VALID,23.8593,VALID,343,VALID,0.403906,
2011-01-21, 01:41:04,VALID,1002.02,VALID,0,INVALID,163.723,VALID,0,VALID,23.7991,VALID,343,VALID,0.383203,
2011-01-21, 01:42:04,VALID,1002,VALID,0,INVALID,163.731,VALID,0,VALID,23.8185,VALID,343,VALID,0.426953,
2011-01-21, 01:43:04,VALID,1002,VALID,0,INVALID,163.731,VALID,0,VALID,23.8185,VALID,343,VALID,0.417969,
2011-01-21, 01:44:04,VALID,1002.01,VALID,0,INVALID,163.708,VALID,0,VALID,23.7991,VALID,343,VALID,0.439453,
2011-01-21, 01:45:04,VALID,1001.98,VALID,0,INVALID,163.739,VALID,0,VALID,23.7796,VALID,345,VALID,0.582031,
2011-01-21, 01:46:04,VALID,1001.99,VALID,0,INVALID,163.746,VALID,0.100563,VALID,23.7601,VALID,348,VALID,0.466797,
2011-01-21, 01:47:04,VALID,1001.97,VALID,0,INVALID,163.708,VALID,0,VALID,23.7601,VALID,348,VALID,0.351172,
2011-01-21, 01:48:04,VALID,1001.97,VALID,0,INVALID,163.731,VALID,0,VALID,23.7407,VALID,348,VALID,0.329688,
2011-01-21, 01:49:04,VALID,1001.95,VALID,0,INVALID,163.746,VALID,0,VALID,23.7194,VALID,348,VALID,0.276563,
2011-01-21, 01:50:04,VALID,1001.97,VALID,0,INVALID,163.739,VALID,0,VALID,23.7601,VALID,350,VALID,0.474609,
2011-01-21, 01:51:04,VALID,1001.95,VALID,0,INVALID,163.746,VALID,0,VALID,23.7601,VALID,352,VALID,0.514844,
2011-01-21, 01:52:04,VALID,1001.97,VALID,0,INVALID,163.762,VALID,0,VALID,23.7583,VALID,355,VALID,0.520703,
2011-01-21, 01:53:04,VALID,1001.93,VALID,0,INVALID,163.731,VALID,0,VALID,23.8203,VALID,355,VALID,0.394922,
2011-01-21, 01:54:04,VALID,1001.95,VALID,0,INVALID,163.716,VALID,0,VALID,23.7778,VALID,355,VALID,0.530078,
2011-01-21, 01:55:04,VALID,1001.93,VALID,0,INVALID,163.739,VALID,0,VALID,23.7991,VALID,355,VALID,0.536719,
2011-01-21, 01:56:04,VALID,1001.93,VALID,0,INVALID,163.723,VALID,0,VALID,23.7796,VALID,355,VALID,0.438672,
2011-01-21, 01:57:04,VALID,1001.92,VALID,0,INVALID,163.769,VALID,0,VALID,23.7796,VALID,355,VALID,0.358594,
2011-01-21, 01:58:04,VALID,1001.92,VALID,0,INVALID,163.716,VALID,0.100563,VALID,23.7407,VALID,355,VALID,0.426562,
2011-01-21, 01:59:04,VALID,1001.9,VALID,0,INVALID,163.739,VALID,0,VALID,23.7407,VALID,355,VALID,0.310547,
2011-01-21, 02:00:04,VALID,1001.9,VALID,0,INVALID,163.739,VALID,0,VALID,23.7212,VALID,355,VALID,0.184766,
2011-01-21, 02:01:04,VALID,1001.88,VALID,0,INVALID,163.723,VALID,0,VALID,23.7017,VALID,355,VALID,0.204297,
2011-01-21, 02:02:04,VALID,1001.9,VALID,0,INVALID,163.754,VALID,0,VALID,23.6823,VALID,355,VALID,0.220703,
2011-01-21, 02:03:04,VALID,1001.87,VALID,0,INVALID,163.731,VALID,0,VALID,23.6823,VALID,355,VALID,0.316406,
2011-01-21, 02:04:04,VALID,1001.88,VALID,0,INVALID,163.762,VALID,0,VALID,23.6823,VALID,355,VALID,0.287891,
2011-01-21, 02:05:04,VALID,1001.86,VALID,0,INVALID,163.739,VALID,0,VALID,23.6628,VALID,355,VALID,0.278125,
2011-01-21, 02:06:04,VALID,1001.86,VALID,0,INVALID,163.754,VALID,0,VALID,23.6434,VALID,355,VALID,0.259375,
2011-01-21, 02:07:04,VALID,1001.82,VALID,0,INVALID,163.754,VALID,0,VALID,23.6239,VALID,355,VALID,0.264062,
2011-01-21, 02:08:04,VALID,1001.83,VALID,0,INVALID,163.739,VALID,0,VALID,23.6044,VALID,355,VALID,0.278125,
2011-01-21, 02:09:04,VALID,1001.84,VALID,0,INVALID,163.739,VALID,0,VALID,23.6044,VALID,355,VALID,0.286719,
2011-01-21, 02:10:04,VALID,1001.85,VALID,0,INVALID,163.754,VALID,0,VALID,23.5637,VALID,355,VALID,0,
2011-01-21, 02:11:04,VALID,1001.85,VALID,0,INVALID,163.731,VALID,0,VALID,23.6044,VALID,355,VALID,0,
2011-01-21, 02:12:04,VALID,1001.86,VALID,0,INVALID,163.731,VALID,0,VALID,23.585,VALID,355,VALID,0,
2011-01-21, 02:13:04,VALID,1001.88,VALID,0,INVALID,163.739,VALID,0,VALID,23.585,VALID,355,VALID,0,
2011-01-21, 02:14:04,VALID,1001.89,VALID,0,INVALID,163.746,VALID,0,VALID,23.5868,VALID,355,VALID,0,
2011-01-21, 02:15:04,VALID,1001.89,VALID,0,INVALID,163.746,VALID,0,VALID,23.5655,VALID,355,VALID,0,
2011-01-21, 02:16:04,VALID,1001.85,VALID,0,INVALID,163.746,VALID,0,VALID,23.5868,VALID,355,VALID,0,
2011-01-21, 02:17:04,VALID,1001.81,VALID,0,INVALID,163.777,VALID,0,VALID,23.546,VALID,355,VALID,0,
2011-01-21, 02:18:04,VALID,1001.82,VALID,0,INVALID,163.762,VALID,0,VALID,23.546,VALID,355,VALID,0,
2011-01-21, 02:19:04,VALID,1001.81,VALID,0,INVALID,163.739,VALID,0,VALID,23.546,VALID,355,VALID,0,
2011-01-21, 02:20:04,VALID,1001.83,VALID,0,INVALID,163.762,VALID,0,VALID,23.5868,VALID,355,VALID,0,
2011-01-21, 02:21:04,VALID,1001.81,VALID,0,INVALID,163.762,VALID,0,VALID,23.5673,VALID,355,VALID,0,
2011-01-21, 02:22:04,VALID,1001.8,VALID,0,INVALID,163.746,VALID,0,VALID,23.5266,VALID,355,VALID,0,
2011-01-21, 02:23:04,VALID,1001.84,VALID,0,INVALID,163.754,VALID,0,VALID,23.5071,VALID,355,VALID,0,
2011-01-21, 02:24:04,VALID,1001.83,VALID,0,INVALID,163.762,VALID,0.100563,VALID,23.5071,VALID,355,VALID,0,
2011-01-21, 02:25:04,VALID,1001.85,VALID,0,INVALID,163.746,VALID,0,VALID,23.5089,VALID,355,VALID,0,
2011-01-21, 02:26:04,VALID,1001.82,VALID,0,INVALID,163.739,VALID,0,VALID,23.4293,VALID,355,VALID,0,
2011-01-21, 02:27:04,VALID,1001.84,VALID,0,INVALID,163.769,VALID,0,VALID,23.4098,VALID,355,VALID,0,
2011-01-21, 02:28:04,VALID,1001.83,VALID,0,INVALID,163.777,VALID,0.100563,VALID,23.3709,VALID,355,VALID,0,
2011-01-21, 02:29:04,VALID,1001.82,VALID,0,INVALID,163.754,VALID,0,VALID,23.3497,VALID,355,VALID,0,
2011-01-21, 02:30:04,VALID,1001.82,VALID,0,INVALID,163.777,VALID,0,VALID,23.3514,VALID,355,VALID,0,
2011-01-21, 02:31:04,VALID,1001.83,VALID,0,INVALID,163.777,VALID,0,VALID,23.332,VALID,355,VALID,0,
2011-01-21, 02:32:04,VALID,1001.81,VALID,0,INVALID,163.754,VALID,0,VALID,23.332,VALID,355,VALID,0,
2011-01-21, 02:33:04,VALID,1001.8,VALID,0,INVALID,163.769,VALID,0.100563,VALID,23.332,VALID,355,VALID,0,
2011-01-21, 02:34:04,VALID,1001.81,VALID,0,INVALID,163.777,VALID,0,VALID,23.332,VALID,355,VALID,0,
2011-01-21, 02:35:04,VALID,1001.81,VALID,0,INVALID,163.754,VALID,0,VALID,23.3302,VALID,355,VALID,0,
2011-01-21, 02:36:04,VALID,1001.79,VALID,0,INVALID,163.784,VALID,0,VALID,23.3302,VALID,355,VALID,0,
2011-01-21, 02:37:04,VALID,1001.81,VALID,0,INVALID,163.739,VALID,0,VALID,23.332,VALID,355,VALID,0,
2011-01-21, 02:38:04,VALID,1001.84,VALID,0,INVALID,163.754,VALID,0,VALID,23.332,VALID,355,VALID,0,
2011-01-21, 02:39:04,VALID,1001.82,VALID,0,INVALID,163.777,VALID,0.100563,VALID,23.3107,VALID,355,VALID,0,
2011-01-21, 02:40:04,VALID,1001.83,VALID,0,INVALID,163.762,VALID,0,VALID,23.3107,VALID,355,VALID,0,
2011-01-21, 02:41:04,VALID,1001.82,VALID,0,INVALID,163.769,VALID,0,VALID,23.3125,VALID,355,VALID,0,
2011-01-21, 02:42:04,VALID,1001.82,VALID,0,INVALID,163.769,VALID,0,VALID,23.3125,VALID,355,VALID,0,
2011-01-21, 02:43:04,VALID,1001.81,VALID,0,INVALID,163.792,VALID,0,VALID,23.2931,VALID,355,VALID,0,
2011-01-21, 02:44:04,VALID,1001.78,VALID,0,INVALID,163.769,VALID,0,VALID,23.2718,VALID,355,VALID,0,
2011-01-21, 02:45:04,VALID,1001.77,VALID,0,INVALID,163.784,VALID,0.100563,VALID,23.3125,VALID,355,VALID,0,
2011-01-21, 02:46:04,VALID,1001.74,VALID,0,INVALID,163.754,VALID,0,VALID,23.2931,VALID,355,VALID,0,
2011-01-21, 02:47:04,VALID,1001.71,VALID,0,INVALID,163.739,VALID,0,VALID,23.2524,VALID,355,VALID,0,
2011-01-21, 02:48:04,VALID,1001.73,VALID,0,INVALID,163.777,VALID,0,VALID,23.2736,VALID,355,VALID,0.377734,
2011-01-21, 02:49:04,VALID,1001.72,VALID,0,INVALID,163.777,VALID,0,VALID,23.2134,VALID,355,VALID,0.211719,
2011-01-21, 02:50:04,VALID,1001.7,VALID,0,INVALID,163.754,VALID,0.100563,VALID,23.2541,VALID,355,VALID,0.259375,
2011-01-21, 02:51:04,VALID,1001.68,VALID,0,INVALID,163.769,VALID,0.100563,VALID,23.2134,VALID,355,VALID,0.190625,
2011-01-21, 02:52:04,VALID,1001.68,VALID,0,INVALID,163.777,VALID,0,VALID,23.1957,VALID,355,VALID,0.180078,
2011-01-21, 02:53:04,VALID,1001.66,VALID,0,INVALID,163.784,VALID,0.100563,VALID,23.1568,VALID,355,VALID,0.157422,
2011-01-21, 02:54:04,VALID,1001.66,VALID,0,INVALID,163.8,VALID,0.100563,VALID,23.1374,VALID,355,VALID,0.122266,
2011-01-21, 02:55:04,VALID,1001.65,VALID,0,INVALID,163.784,VALID,0,VALID,23.1179,VALID,355,VALID,0.169922,
2011-01-21, 02:56:04,VALID,1001.62,VALID,0,INVALID,163.762,VALID,0,VALID,23.0772,VALID,355,VALID,0,
2011-01-21, 02:57:04,VALID,1001.65,VALID,0,INVALID,163.784,VALID,0,VALID,23.0772,VALID,355,VALID,0,
2011-01-21, 02:58:04,VALID,1001.68,VALID,0,INVALID,163.777,VALID,0,VALID,23.0984,VALID,355,VALID,0,
2011-01-21, 02:59:04,VALID,1001.7,VALID,0,INVALID,163.8,VALID,0.100563,VALID,23.0772,VALID,355,VALID,0,
2011-01-21, 03:00:04,VALID,1001.69,VALID,0,INVALID,163.769,VALID,0.100563,VALID,23.0772,VALID,355,VALID,0,
2011-01-21, 03:01:04,VALID,1001.7,VALID,0,INVALID,163.784,VALID,0,VALID,23.1179,VALID,355,VALID,0,
2011-01-21, 03:02:04,VALID,1001.72,VALID,0,INVALID,163.792,VALID,0,VALID,23.1374,VALID,355,VALID,0,
2011-01-21, 03:03:04,VALID,1001.72,VALID,0,INVALID,163.8,VALID,0,VALID,23.1391,VALID,355,VALID,0,
2011-01-21, 03:04:04,VALID,1001.73,VALID,0,INVALID,163.777,VALID,0.100563,VALID,23.1162,VALID,355,VALID,0,
2011-01-21, 03:05:04,VALID,1001.71,VALID,0,INVALID,163.762,VALID,0,VALID,23.1763,VALID,355,VALID,0,
2011-01-21, 03:06:04,VALID,1001.74,VALID,0,INVALID,163.784,VALID,0.100563,VALID,23.1551,VALID,355,VALID,0,
2011-01-21, 03:07:04,VALID,1001.72,VALID,0,INVALID,163.762,VALID,0,VALID,23.1568,VALID,355,VALID,0.0878906,
2011-01-21, 03:08:04,VALID,1001.73,VALID,0,INVALID,163.769,VALID,0.100563,VALID,23.1551,VALID,355,VALID,0.144531,
2011-01-21, 03:09:04,VALID,1001.74,VALID,0,INVALID,163.769,VALID,0.100563,VALID,23.1374,VALID,355,VALID,0.311719,
2011-01-21, 03:10:04,VALID,1001.72,VALID,0,INVALID,163.762,VALID,0.100563,VALID,23.1374,VALID,355,VALID,0.526953,
2011-01-21, 03:11:04,VALID,1001.72,VALID,0,INVALID,163.777,VALID,0.100563,VALID,23.0967,VALID,355,VALID,0.480859,
2011-01-21, 03:12:04,VALID,1001.72,VALID,0,INVALID,163.777,VALID,0.100563,VALID,23.0578,VALID,355,VALID,0.573828,
2011-01-21, 03:13:04,VALID,1001.75,VALID,0,INVALID,163.784,VALID,0,VALID,23.0401,VALID,355,VALID,0.607031,
2011-01-21, 03:14:04,VALID,1001.76,VALID,0,INVALID,163.807,VALID,0,VALID,23.0401,VALID,355,VALID,0.566406,
2011-01-21, 03:15:04,VALID,1001.76,VALID,0,INVALID,163.777,VALID,0,VALID,23.0418,VALID,355,VALID,0.414453,
2011-01-21, 03:16:04,VALID,1001.76,VALID,0,INVALID,163.8,VALID,0,VALID,23.0224,VALID,355,VALID,0.479297,
2011-01-21, 03:17:04,VALID,1001.77,VALID,0,INVALID,163.8,VALID,0,VALID,23.0224,VALID,355,VALID,0.412891,
2011-01-21, 03:18:04,VALID,1001.77,VALID,0,INVALID,163.769,VALID,0,VALID,23.0029,VALID,355,VALID,0.306641,
2011-01-21, 03:19:04,VALID,1001.75,VALID,0,INVALID,163.784,VALID,0,VALID,23.0012,VALID,355,VALID,0.151172,
2011-01-21, 03:20:04,VALID,1001.76,VALID,0,INVALID,163.769,VALID,0,VALID,23.0206,VALID,355,VALID,0,
2011-01-21, 03:21:04,VALID,1001.74,VALID,0,INVALID,163.777,VALID,0,VALID,23.0613,VALID,355,VALID,0,
2011-01-21, 03:22:04,VALID,1001.78,VALID,0,INVALID,163.792,VALID,0,VALID,23.0401,VALID,355,VALID,0,
2011-01-21, 03:23:04,VALID,1001.81,VALID,0,INVALID,163.777,VALID,0,VALID,23.0189,VALID,355,VALID,0,
2011-01-21, 03:24:04,VALID,1001.81,VALID,0,INVALID,163.754,VALID,0,VALID,23.0012,VALID,355,VALID,0,
2011-01-21, 03:25:04,VALID,1001.82,VALID,0,INVALID,163.769,VALID,0,VALID,23.0012,VALID,355,VALID,0,
2011-01-21, 03:26:04,VALID,1001.81,VALID,0,INVALID,163.815,VALID,0,VALID,22.9622,VALID,355,VALID,0,
2011-01-21, 03:27:04,VALID,1001.84,VALID,0,INVALID,163.8,VALID,0,VALID,23.0029,VALID,355,VALID,0,
2011-01-21, 03:28:04,VALID,1001.84,VALID,0,INVALID,163.807,VALID,0,VALID,23.0224,VALID,355,VALID,0,
2011-01-21, 03:29:04,VALID,1001.84,VALID,0,INVALID,163.8,VALID,0,VALID,23.0206,VALID,355,VALID,0,
2011-01-21, 03:30:04,VALID,1001.84,VALID,0,INVALID,163.807,VALID,0,VALID,23.0595,VALID,355,VALID,0,
2011-01-21, 03:31:04,VALID,1001.83,VALID,0,INVALID,163.784,VALID,0,VALID,23.079,VALID,355,VALID,0,
2011-01-21, 03:32:04,VALID,1001.83,VALID,0,INVALID,163.8,VALID,0,VALID,23.0595,VALID,355,VALID,0.211328,
2011-01-21, 03:33:04,VALID,1001.84,VALID,0,INVALID,163.762,VALID,0,VALID,23.0807,VALID,355,VALID,0.358203,
2011-01-21, 03:34:04,VALID,1001.83,VALID,0,INVALID,163.777,VALID,0,VALID,23.1002,VALID,355,VALID,0.430469,
2011-01-21, 03:35:04,VALID,1001.83,VALID,0,INVALID,163.807,VALID,0,VALID,23.1002,VALID,355,VALID,0.480469,
2011-01-21, 03:36:04,VALID,1001.87,VALID,0,INVALID,163.769,VALID,0,VALID,23.0825,VALID,355,VALID,0.480469,
2011-01-21, 03:37:04,VALID,1001.84,VALID,0,INVALID,163.784,VALID,0,VALID,23.0418,VALID,355,VALID,0.453906,
2011-01-21, 03:38:04,VALID,1001.86,VALID,0,INVALID,163.8,VALID,0,VALID,23.0807,VALID,355,VALID,0.438672,
2011-01-21, 03:39:04,VALID,1001.85,VALID,0,INVALID,163.777,VALID,0,VALID,23.079,VALID,355,VALID,0.385547,
2011-01-21, 03:40:04,VALID,1001.87,VALID,0,INVALID,163.807,VALID,0,VALID,23.1197,VALID,355,VALID,0.500781,
2011-01-21, 03:41:04,VALID,1001.86,VALID,0,INVALID,163.777,VALID,0,VALID,23.079,VALID,355,VALID,0.484375,
2011-01-21, 03:42:04,VALID,1001.88,VALID,0,INVALID,163.784,VALID,0,VALID,23.1002,VALID,355,VALID,0.49375,
2011-01-21, 03:43:04,VALID,1001.89,VALID,0,INVALID,163.777,VALID,0,VALID,23.0613,VALID,355,VALID,0.364453,